Home > Weather > Murcia > Past weeks

Flag for Spain Past Weather in Murcia, Spain — Yesterday and Last 2 Weeks

Now
64 °F

Clear.


Feels Like: 64 °F
Forecast: 57 / 86 °F
Wind: 1 mph from West

Location: Murcia / San Javier

Current Time: May 25, 2016 at 7:34:22 AM

Latest Report: May 25, 2016 at 7:00 AM


Visibility: 5 mi

Pressure: 29.83 "Hg

Humidity: 88%

Dew Point: 61 °F

Location of MurciaLocation

Past Weather in Murcia — Graph

°F

Murcia Temperature Yesterday

Maximum temperature yesterday: 72 °F (at 3:00 PM)
Minimum temperature yesterday: 59 °F (at 7:00 AM)
Average temperature yesterday: 67 °F

High & Low Weather Summary for the Past Weeks

 TemperatureHumidityPressure
High82 °F (May 22, 10:00 PM)94% (May 17, 7:00 AM)30.24 "Hg (May 17, 7:00 AM)
Low55 °F (May 12, 7:00 AM)26% (May 22, 10:00 PM)29.68 "Hg (May 11, 8:00 PM)
Average68 °F66%29.98 "Hg
* Reported May 9 11:00 PM — May 24 11:00 PM, Murcia, Weather by CustomWeather, © 2016

Note: Actual official high and low records may vary slightly from our data, if they occured in-between our weather recording intervals... More about our weather records

Advertising

Murcia Weather History for the Previous 24 Hours

Scroll right to see more
 ConditionsComfort  
Time TempWeatherWind HumidityBarometerVisibility
11:00 PM
Tue, May 24
66 °FPassing clouds.No wind83%29.86 "HgN/A
10:00 PM66 °FPartly sunny.2 mph83%29.86 "HgN/A
9:00 PM66 °FScattered clouds.1 mph83%29.83 "HgN/A
8:00 PM68 °FScattered clouds.3 mph83%29.83 "HgN/A
7:00 PM70 °FScattered clouds.6 mph73%29.83 "HgN/A
6:00 PM70 °FPartly sunny.7 mph78%29.86 "HgN/A
5:00 PM70 °FPartly sunny.8 mph78%29.86 "HgN/A
4:00 PM70 °FScattered clouds.10 mph78%29.89 "HgN/A
3:00 PM72 °FPassing clouds.10 mph69%29.92 "HgN/A
2:00 PM70 °FPassing clouds.10 mph73%29.95 "HgN/A
1:00 PM70 °FPassing clouds.9 mph73%29.98 "HgN/A
12:00 PM68 °FPassing clouds.6 mph78%30.01 "HgN/A
11:00 AM68 °FScattered clouds.6 mph78%30.01 "HgN/A
10:00 AM66 °FScattered clouds.5 mph78%30.01 "HgN/A
9:00 AM66 °FScattered clouds.3 mph83%30.01 "HgN/A
8:00 AM63 °FScattered clouds.3 mph88%30.04 "HgN/A
7:00 AM59 °FPassing clouds.2 mph88%30.04 "HgN/A
Weather by CustomWeather, © 2016

See weather overviewHow to use our weather pages